This demonstration page uses our WeatherBlox Daily Observations layout. Learn more.

Left ArrowRight Arrow

39.08367, -84.50855

Hourly Observations for February 12, 2016

Temp ( °F °C ) Dew Point ( °F °C ) Humidity (%) Winds ( mph kmh ) Pressure ( in mb ) Visibility ( mi km ) Precip ( " mm )
12:53 am 00:53 Partly Cloudy 17 -8.3 12 -11.1 80 80 N N/A 30.32 1027 10 16 N/A
1:53 am 01:53 Clear 17 -8.3 13 -10.6 84 84 N N/A 30.31 1026 10 16 N/A
2:53 am 02:53 Clear 15 -9.4 12 -11.1 88 88 NNE 5 7 30.29 1026 10 16 N/A
3:53 am 03:53 Partly Cloudy 17 -8.3 12 -11.1 80 80 NNE 3 6 30.28 1025 10 16 N/A
4:53 am 04:53 Cloudy 17 -8.3 13 -10.6 84 84 NNE 3 6 30.25 1025 10 16 N/A
5:53 am 05:53 Cloudy 18 -7.8 13 -10.6 81 81 N N/A 30.26 1025 10 16 N/A
6:53 am 06:53 Cloudy 18 -7.8 13 -10.6 81 81 N N/A 30.24 1024 10 16 N/A
7:53 am 07:53 Cloudy 19 -7.2 13 -10.6 77 77 N N/A 30.23 1024 10 16 N/A
8:53 am 08:53 Cloudy 21 -6.1 12 -11.1 68 68 SSW 6 9 30.24 1024 10 16 N/A
9:53 am 09:53 Cloudy 23 -5 13 -10.6 65 65 S 7 11 30.22 1024 10 16 N/A
10:53 am 10:53 Cloudy 25 -3.9 16 -8.9 69 69 SSW 8 13 30.21 1023 8 13 N/A
11:08 am 11:08 Cloudy with Light Snow 25 -4 18 -8 74 74 SSW 8 13 30.21 1023 3 5 N/A
11:33 am 11:33 Cloudy with Light Snow 26 -3.3 19 -7.2 75 75 SSW 9 15 30.21 1023 7 11 N/A
11:53 am 11:53 Cloudy 26 -3.3 19 -7.2 75 75 WSW 8 13 30.19 1022 9 14 N/A
12:53 pm 12:53 Cloudy 28 -2.2 18 -7.8 66 66 W 10 17 30.16 1021 10 16 N/A
1:53 pm 13:53 Cloudy 28 -2.2 19 -7.2 69 69 W 7 11 30.14 1021 9 14 N/A
2:53 pm 14:53 Cloudy 29 -1.7 18 -7.8 63 63 W 15 24 30.14 1021 10 16 N/A
3:53 pm 15:53 Cloudy 29 -1.7 17 -8.3 61 61 W 12 19 30.12 1020 10 16 N/A
4:53 pm 16:53 Cloudy 29 -1.7 17 -8.3 61 61 W 17 28 30.15 1021 10 16 N/A
5:53 pm 17:53 Cloudy with Light Snow 28 -2.2 17 -8.3 63 63 W 16 26 30.17 1022 9 14 N/A
6:53 pm 18:53 Mostly Cloudy 27 -2.8 16 -8.9 63 63 W 16 26 30.20 1023 10 16 N/A
7:05 pm 19:05 Mostly Cloudy with Light Snow 26 -3.3 19 -7.2 75 75 W 16 26 30.21 1023 3 4 N/A
7:20 pm 19:20 Mostly Cloudy with Haze 26 -3.3 18 -7.8 71 71 W 17 28 30.24 1024 4 6 N/A
7:45 pm 19:45 Cloudy with Light Snow 25 -3.9 19 -7.2 78 78 WNW 18 30 30.24 1024 4 6 N/A
7:53 pm 19:53 Cloudy with Light Snow 24 -4.4 20 -6.7 84 84 WNW 12 19 30.24 1024 2 3 N/A
8:25 pm 20:25 Cloudy with Light Snow 24 -4.4 18 -7.8 77 77 NW 10 17 30.27 1025 7 11 N/A
8:53 pm 20:53 Cloudy 24 -4.4 12 -11.1 60 60 NW 17 28 30.27 1025 10 16 N/A
9:53 pm 21:53 Cloudy 22 -5.6 13 -10.6 68 68 NW 8 13 30.29 1026 10 16 N/A
10:53 pm 22:53 Mostly Cloudy 22 -5.6 13 -10.6 68 68 NW 10 17 30.32 1027 9 14 N/A
11:14 pm 23:14 Cloudy with Light Snow 19 -7 12 -11 73 73 NNW 14 22 30.36 1028 3 4 N/A
11:24 pm 23:24 Cloudy with Light Snow 19 -7 12 -11 73 73 NNW 9 15 30.36 1028 7 11 N/A
11:53 pm 23:53 Cloudy with Light Snow 20 -6.7 11 -11.7 68 68 NW 12 19 30.35 1028 8 13 N/A

Powered by AerisWeather